Location: Meadowbank Aerodrome
(65.0250°N, 96.0705°W)
Time: 03:44:02
(UTC-05:00)

Cosmos 2221 - Visible Passes

Search period start: 25 October 2014 00:00
Search period end: 03 November 2014 23:00
Orbit: 599 x 621 km, 82.5° (Epoch: 24 October)

Date Brightness Start Highest point End Pass type
(mag) Time Alt. Az. Time Alt. Az. Time Alt. Az.
25 Oct 5.4 00:50:32 10° N 00:51:45 16° N 00:51:45 16° N visible
25 Oct 5.3 02:28:04 10° NNW 02:28:42 14° NNW 02:28:42 14° NNW visible
25 Oct 4.5 18:26:50 10° WSW 18:30:33 26° NW 18:34:17 10° N visible
25 Oct 5.3 20:08:18 10° NW 20:09:49 12° NNW 20:11:20 10° N visible
25 Oct 5.4 23:27:50 10° N 23:29:00 12° NNE 23:29:00 12° NNE visible
26 Oct 5.4 01:04:57 10° N 01:05:57 15° N 01:05:57 15° N visible
26 Oct 5.4 02:42:34 10° NNW 02:42:53 12° NNW 02:42:53 12° NNW visible
26 Oct 4.8 18:41:56 10° W 18:45:18 21° NW 18:48:41 10° N visible
26 Oct 5.5 20:24:28 10° NNW 20:24:45 10° NNW 20:25:03 10° NNW visible
26 Oct 5.4 23:42:05 10° N 23:43:12 13° NNE 23:43:12 13° NNE visible
27 Oct 5.5 01:19:23 10° N 01:20:09 14° N 01:20:09 14° N visible
27 Oct 5.5 02:57:05 10° NNW 02:57:05 10° NNW 02:57:05 10° NNW visible
27 Oct 5.0 18:57:09 10° W 19:00:06 17° NW 19:03:04 10° N visible
27 Oct 5.4 23:56:25 10° N 23:57:24 13° N 23:57:24 13° N visible
28 Oct 5.5 01:33:49 10° NNW 01:34:21 13° N 01:34:21 13° N visible
28 Oct 5.1 19:12:30 10° WNW 19:14:57 15° NNW 19:17:24 10° N visible
29 Oct 5.5 00:10:47 10° N 00:11:37 14° N 00:11:37 14° N visible
29 Oct 5.6 01:48:16 10° NNW 01:48:34 12° NNW 01:48:34 12° NNW visible
29 Oct 5.2 19:27:59 10° NW 19:29:50 12° NNW 19:31:40 10° N visible
29 Oct 5.4 22:48:08 10° N 22:48:53 11° NNE 22:48:53 11° NNE visible
30 Oct 5.6 00:25:10 10° N 00:25:50 13° N 00:25:50 13° N visible
30 Oct 5.7 02:02:45 10° NNW 02:02:47 10° NNW 02:02:47 10° NNW visible
30 Oct 4.6 18:01:50 10° W 18:05:22 23° NW 18:08:55 10° N visible
30 Oct 5.3 19:43:43 10° NW 19:44:44 11° NNW 19:45:46 10° N visible
30 Oct 5.4 23:02:20 10° N 23:03:06 12° N 23:03:06 12° N visible
31 Oct 5.6 00:39:34 10° N 00:40:03 13° N 00:40:03 13° N visible
31 Oct 4.9 18:16:59 10° W 18:20:07 19° NW 18:23:17 10° N visible
31 Oct 5.5 23:16:37 10° N 23:17:20 12° N 23:17:20 12° N visible
01 Nov 5.7 00:53:59 10° NNW 00:54:17 12° N 00:54:17 12° N visible
01 Nov 5.0 18:32:15 10° WNW 18:34:56 16° NW 18:37:38 10° N visible
01 Nov 5.5 23:30:58 10° N 23:31:34 12° N 23:31:34 12° N visible
02 Nov 5.8 01:08:25 10° NNW 01:08:31 11° NNW 01:08:31 11° NNW visible
02 Nov 5.1 17:47:39 10° WNW 17:49:47 13° NNW 17:51:55 10° N visible
02 Nov 5.4 21:08:26 10° N 21:08:50 11° NNE 21:08:50 11° NNE visible
02 Nov 5.6 22:45:19 10° N 22:45:47 12° N 22:45:47 12° N visible
03 Nov 5.2 18:03:14 10° NW 18:04:40 11° NNW 18:06:06 10° N visible
03 Nov 5.4 21:22:31 10° N 21:23:04 11° N 21:23:04 11° N visible
03 Nov 5.7 22:59:42 10° N 23:00:01 12° N 23:00:01 12° N visible
